Vorticity
nan nan nan nan nan nan nan nan nan nan nan nan nan nan nan nan nan nan nan nan nan nan nan nan nan nan nan nan nan nan nan nan nan nan nan nan nan nan nan nan nan nan nan
nan 10 9 6 4 5 4 5 5 5 5 4 4 4 4 4 5 5 5 5 5 5 5 5 5 5 5 5 6 6 6 7 6 6 7 7 6 5 5 5 5 5 nan
nan 9 7 6 5 5 5 5 5 5 5 4 4 4 5 5 5 5 5 5 5 5 5 4 5 5 5 5 5 6 6 7 7 8 12 11 6 4 5 3 4 5 nan
nan 7 8 8 6 5 5 4 5 5 4 4 4 4 5 4 4 5 5 5 5 5 4 4 4 4 4 5 5 6 5 6 6 11 11 6 5 6 7 6 6 7 nan
nan 8 9 8 7 6 5 5 5 4 4 5 4 5 4 4 4 4 5 5 4 4 4 4 4 5 5 5 4 5 5 6 9 9 8 7 7 4 5 8 8 7 nan
nan 9 9 8 7 7 6 5 5 5 4 5 6 5 4 4 4 4 4 4 4 4 4 4 5 5 5 5 5 5 5 5 8 8 6 7 6 2 4 7 10 10 nan
nan 7 8 8 7 6 5 6 5 5 5 6 5 5 4 4 4 4 4 4 4 4 4 6 6 6 6 5 4 4 5 8 8 6 6 7 2 4 7 9 10 8 nan
nan 5 7 6 4 6 5 5 6 6 5 5 6 5 4 4 5 5 5 4 4 4 4 5 5 6 5 4 4 5 6 9 8 6 7 5 3 5 7 11 9 8 nan
nan 5 5 5 6 6 5 6 6 6 6 5 4 4 5 5 5 3 4 4 4 4 4 4 4 4 4 4 5 5 6 9 9 6 7 4 4 6 7 7 7 7 nan
nan 5 5 4 3 5 7 7 6 5 5 5 5 4 5 5 5 5 4 4 4 4 4 4 3 4 4 5 6 5 6 8 8 8 8 2 2 6 6 5 6 4 nan
nan 4 6 6 4 6 6 7 8 6 6 5 5 4 4 5 5 5 5 4 4 4 5 5 4 4 5 6 6 7 11 9 7 8 6 3 4 5 5 6 6 5 nan
nan 6 5 5 6 6 7 7 6 5 6 7 7 6 6 6 6 6 7 7 7 7 8 8 8 8 9 9 6 8 8 6 7 8 4 3 5 6 6 7 5 5 nan
nan 6 8 7 7 6 6 6 6 8 8 8 7 7 6 6 7 8 8 9 9 9 9 9 10 10 8 7 7 7 7 8 8 6 3 4 6 5 5 6 6 6 nan
nan 7 7 7 6 6 7 8 7 6 7 7 8 8 7 7 7 9 9 9 9 8 8 8 9 8 8 8 9 9 10 10 9 8 7 4 4 5 6 5 6 7 nan
nan 7 9 10 8 8 7 7 7 8 7 7 8 8 8 8 9 9 8 7 7 8 8 9 9 9 9 9 10 9 9 9 10 10 6 10 11 10 10 10 9 7 nan
nan 10 8 6 9 11 9 10 9 9 8 9 8 9 9 10 10 7 7 7 7 8 8 9 9 8 8 7 7 8 8 8 8 10 10 9 8 15 18 19 18 16 nan
nan 10 10 8 7 9 8 9 11 9 12 10 8 10 9 8 9 9 8 7 8 8 9 9 8 7 7 7 6 7 7 7 8 10 10 9 6 6 10 13 15 18 nan
nan 11 10 7 5 4 8 9 8 10 11 7 9 7 9 9 9 9 8 8 10 10 9 8 8 8 7 7 7 7 7 7 8 10 9 8 8 4 -2 1 7 9 nan
nan 7 6 5 7 7 9 9 5 10 8 8 8 8 8 8 9 9 9 9 8 7 8 8 8 8 6 6 7 8 6 8 10 8 7 7 8 9 4 -1 2 2 nan
nan 8 6 8 6 9 8 6 5 6 6 8 9 10 8 7 9 9 7 8 8 8 8 8 7 9 8 7 9 8 8 9 10 7 6 7 7 7 7 7 6 1 nan
nan 9 8 9 5 3 5 7 8 6 7 9 8 7 8 8 8 9 9 8 8 9 8 9 9 8 8 10 11 8 10 8 6 6 7 7 6 6 6 6 7 7 nan
nan 7 9 8 7 5 8 9 9 8 8 7 6 5 6 8 9 10 8 8 9 8 8 10 10 10 8 9 12 10 7 6 5 7 8 6 6 7 4 5 7 7 nan
nan 7 8 9 9 8 9 8 8 8 9 6 7 6 6 8 8 8 10 10 10 9 8 7 7 10 9 7 9 10 9 9 7 6 7 7 7 8 5 7 8 7 nan
nan 9 9 8 7 7 8 10 10 10 9 9 7 6 7 6 9 10 7 7 7 7 9 9 8 9 7 8 7 9 11 8 6 8 5 6 6 8 11 8 8 8 nan
nan 9 8 7 7 9 10 12 12 11 10 10 7 8 8 6 7 9 9 9 8 8 7 7 7 9 10 9 8 8 9 9 8 8 6 9 9 10 7 9 10 8 nan
nan nan nan nan nan nan nan nan nan nan nan nan nan nan nan nan nan nan nan nan nan nan nan nan nan nan nan nan nan nan nan nan nan nan nan nan nan nan nan nan nan nan nan
CAPE
435 555 764 1131 1168 1045 905 799 764 816 840 786 761 641 624 610 647 700 769 945 846 548 548 541 561 602 617 655 799 926 1100 1145 1342 1372 1616 1272 1045 1181 1159 1291 1314 1004 1371
652 663 899 1100 1214 1144 1044 907 928 966 912 700 728 723 654 578 593 653 595 464 353 200 178 206 238 253 355 433 643 787 865 929 1067 1055 1121 1047 889 1070 1159 1235 1068 1367 1498
811 902 871 984 1146 1269 1139 1075 1196 1098 796 769 809 793 629 538 527 483 409 447 229 103 86 55 68 103 130 189 298 390 437 486 488 690 703 116 210 904 1357 1200 1256 1368 1408
945 970 990 985 1125 1283 1242 1278 1231 1057 874 854 894 773 600 521 401 300 278 325 97 46 31 21 4 1 4 8 29 29 33 41 122 155 0 13 97 711 1279 1223 1221 1197 1062
866 910 1069 1138 1253 1363 1374 1332 1293 1284 1216 1129 982 709 593 463 303 138 118 43 16 9 2 0 0 0 0 0 0 0 2 7 19 0 0 0 312 622 1149 1283 1304 1244 1202
740 771 949 1201 1330 1388 1422 1458 1445 1336 1189 1119 993 671 556 375 192 59 24 0 0 0 0 0 0 0 0 0 0 0 0 11 0 0 0 0 57 823 1349 1209 1345 1369 1053
846 922 1047 1331 1399 1461 1495 1488 1391 1150 958 1026 937 721 526 363 194 42 0 0 0 0 0 0 0 0 0 0 0 0 0 0 0 0 0 0 23 1078 1306 1287 1326 977 1000
983 1227 1240 1351 1315 1297 1344 1302 1121 953 928 998 881 682 495 387 223 27 0 0 0 0 0 0 0 0 5 2 15 50 3 19 0 0 0 0 75 1006 951 716 1310 819 685
1278 1334 1253 1299 1248 1215 1096 1002 961 932 945 925 870 726 590 449 249 60 7 37 26 5 24 41 119 96 69 92 99 61 25 8 0 0 0 0 204 815 818 756 1124 1276 1021
717 866 865 1061 1270 903 836 873 802 743 759 805 805 654 434 309 259 205 202 60 215 184 156 221 203 212 198 162 126 107 66 0 0 0 0 0 188 488 626 551 674 783 687
747 774 833 803 829 679 572 660 734 761 686 673 666 548 348 50 10 53 157 310 290 294 271 313 364 321 250 144 69 83 60 0 0 0 0 0 35 45 129 446 694 716 517
680 631 553 537 502 393 591 491 349 353 335 312 364 270 129 64 49 149 129 266 451 463 576 552 517 505 338 23 0 4 0 0 0 0 0 0 0 12 30 130 549 434 329
634 527 315 243 191 249 373 202 53 96 77 89 118 74 82 130 81 71 84 19 8 111 59 10 15 13 0 0 0 0 0 0 0 0 0 0 0 15 22 0 185 256 225
260 269 183 51 40 26 0 24 2 38 35 84 148 159 121 50 10 0 0 0 0 0 0 0 0 0 0 0 0 0 0 0 0 0 0 0 0 0 0 0 16 296 283
82 50 13 0 0 0 3 1 0 40 108 118 168 172 3 0 0 0 0 0 0 0 0 0 0 0 0 0 0 0 0 0 0 0 0 0 0 0 0 0 0 71 309
20 19 5 0 0 0 0 0 0 2 65 185 133 7 0 0 0 0 0 0 0 0 0 0 0 0 0 0 0 0 0 0 0 0 0 0 0 0 0 0 1 31 58
0 0 0 0 0 0 0 0 0 0 0 2 0 0 0 0 0 0 0 0 0 0 0 0 0 0 0 0 0 0 0 0 0 0 0 0 0 0 0 0 0 0 0
0 58 26 37 23 0 0 0 0 0 0 0 0 0 0 0 0 0 0 0 0 0 0 0 0 0 0 0 0 0 0 0 0 0 0 0 0 0 0 0 0 0 0
122 56 36 9 0 0 0 0 0 0 0 0 0 0 0 0 0 0 0 0 0 0 0 0 0 0 0 0 0 0 0 0 0 0 0 0 0 0 0 0 0 0 0
0 0 0 0 0 0 0 0 0 0 0 0 0 0 0 0 0 0 0 0 0 0 0 0 0 0 0 0 0 0 0 0 0 0 0 0 0 0 0 0 0 0 0
0 0 0 0 0 0 0 0 0 0 0 0 0 0 0 0 0 0 0 0 0 0 0 0 0 0 0 0 0 0 0 0 0 0 0 0 0 0 0 0 0 0 0
0 0 0 0 0 0 0 0 0 0 0 0 0 0 0 0 0 0 0 0 0 0 0 0 0 0 0 0 0 0 0 0 0 0 0 0 0 0 0 0 0 0 0
0 0 0 0 0 0 0 0 0 0 0 0 0 0 0 0 0 0 0 0 0 0 0 0 0 0 0 0 0 0 0 0 0 0 0 0 0 0 0 0 0 0 0
0 0 0 0 0 0 0 0 0 0 0 0 0 0 0 0 0 0 0 0 0 0 0 0 0 0 0 0 0 0 0 0 0 1 0 0 0 0 0 0 0 0 0
0 0 0 0 0 0 0 0 0 0 0 0 0 0 0 0 0 0 0 0 0 0 0 0 0 0 0 0 0 0 0 0 0 1 0 0 1 0 0 0 0 0 0
0 0 0 0 0 0 0 0 0 0 0 0 0 0 0 0 0 0 0 0 0 0 0 0 0 0 0 0 0 0 0 0 0 3 1 0 0 0 0 0 0 0 0